Regional Weather Roundup
Issued by NWS

Home | Current Version | Previous Version | Text Only | Print | Product List | Glossary Off
Versions: 1 2 3 4 5 6 7 8 9 10 11 12 13 14 15 16 17 18 19 20 21 22 23 24 25 26 27 28 29 30 31 32 33 34 35 36 37 38 39 40 41 42 43 44 45 46 47 48 49 50

000
ASUS43 KMPX 181201
RWRMN
WEATHER ROUNDUP FOR MINNESOTA
NATIONAL WEATHER SERVICE TWIN CITIES/CHANHASSEN MN
700 AM CDT FRI AUG 18 2017


NOTE: "FAIR" INDICATES FEW OR NO CLOUDS BELOW 12,000 FEET WITH NO
SIGNIFICANT WEATHER AND/OR OBSTRUCTIONS TO VISIBILITY. N/A MEANS
CURRENT SKY AND/OR WEATHER CONDITIONS ARE NOT AVAILABLE.

MNZ060>063-068>070-181300-
   Twin Cities Metro

CITY           SKY/WX    TMP DP  RH WIND       PRES   REMARKS
TWIN CITIES    MOCLDY    63  58  83 CALM      29.88R
6HR MIN TEMP:  60; 6HR MAX TEMP:  63;

ST PAUL        PTCLDY    59  59 100 SE3       29.88R
CRYSTAL        PTCLDY    58  55  90 CALM      29.86S
BLAINE         MOCLDY    61  61 100 CALM      29.87R
LAKEVILLE      CLOUDY    57  57 100 CALM      29.88S
EDEN PRAIRIE   MOCLDY    60  58  92 SW5       29.87R
6HR MIN TEMP:  58; 6HR MAX TEMP:  63;

SOUTH ST PAUL  MOCLDY    60  60  99 CALM      29.88R
LAKE ELMO      FAIR      57  55  94 CALM      29.88S
$$
MNZ001>005-007-008-013>017-022>024-027-028-181300-
   Northwest Minnesota

CITY           SKY/WX    TMP DP  RH WIND       PRES   REMARKS
BEMIDJI        CLOUDY    55  54  97 CALM      29.87S
HALLOCK        CLOUDY    54  52  94 CALM      29.83R FOG
ROSEAU         CLEAR     52  46  82 CALM      29.83S
WARROAD        PTCLDY    54  50  87 CALM      29.84R
CROOKSTON      CLEAR     55  54  94 CALM      29.85S
FOSSTON        CLOUDY    54  54 100 S6        29.86F
DETROIT LAKES  CLOUDY    59  57  94 CALM      29.88S
MOORHEAD       CLOUDY    61  57  88 E3        29.84S
PARK RAPIDS    CLOUDY    58  56  93 CALM      29.88R
MAHNOMEN       FAIR      56  55  95 SE5       29.86S
$$
MNZ006-009>011-018-025>026-181300-
   North Central Minnesota

CITY           SKY/WX    TMP DP  RH WIND       PRES   REMARKS
BAUDETTE       PTCLDY    51  51 100 CALM      29.83R
FLAG ISLAND    CLEAR     64  55  72 CALM      29.81S
INTL FALLS     FOG       49  48  97 CALM      29.83S VSB 3/4
6HR MIN TEMP:  47; 6HR MAX TEMP:  50;

WASKISH        MOCLDY    50  50 100 CALM      29.85S
BIG FORK       FOG       46  46 100 CALM      29.85S VSB 1/4
LONGVILLE      CLOUDY    54  54 100 CALM      29.86S FOG
GRAND RAPIDS   FOG       54  54 100 CALM      29.87S VSB<1/4
CRANE LAKE     FOG       50  50 100 CALM      29.85S VSB 1/2
ORR            CLOUDY    50  46  87 CALM      29.82S FOG
COOK           FOG       48  48 100 CALM      29.85R VSB 1
WALKER         FAIR      54  53  97 W5        29.87S
$$
MNZ012-019>021-037-181300-
   Northeast Minnesota

CITY           SKY/WX    TMP DP  RH WIND       PRES   REMARKS
DULUTH         FOG       55  55 100 NW7       29.84R VSB 3/4
6HR MIN TEMP:  55; 6HR MAX TEMP:  59;

ELY            CLOUDY    57  55  94 CALM      29.83S
HIBBING        CLOUDY    49  49 100 CALM      29.85R FOG
EVELETH        FOG       53  50  91 CALM      29.86R VSB 3/4
DULUTH HARBOR  PTCLDY    57  55  94 SW7       29.84S
GRAND MARAIS     N/A     63  58  83 CALM      29.76R
$$
MNZ029>031-032-039>041-046>048-054>057-064-181300-
   West Central Minnesota

CITY           SKY/WX    TMP DP  RH WIND       PRES   REMARKS
FERGUS FALLS   CLOUDY    61  61 100 SE5       29.86S
WHEATON        CLOUDY    61  57  88 E5        29.86F
MORRIS         CLOUDY    63  61  94 SE3       29.88S
ALEXANDRIA     CLOUDY    62  60  93 CALM      29.90R
ELBOW LAKE     FAIR      61  60  97 E3        29.88F
WADENA         CLOUDY    57  57 100 CALM      29.87S
GLENWOOD       CLOUDY    61  61 100 SW8       29.90S
APPLETON       DRIZZLE   63  61  94 CALM      29.89F
BENSON         DRIZZLE   63  61  94 CALM      29.91F
ORTONVILLE     CLOUDY    63  57  82 MISG      29.87F
MADISON        LGT RAIN  64  64 100 SE5       29.89F
WILLMAR        FAIR      63  61  94 SW5       29.92F
$$
MNZ033>034-036-042>043-049>051-058-059-181300-
   Central Minnesota

CITY           SKY/WX    TMP DP  RH WIND       PRES   REMARKS
ST CLOUD       CLOUDY    56  56 100 CALM      29.87S
6HR MIN TEMP:  54; 6HR MAX TEMP:  58;

SAUK CENTRE    FAIR      58  58 100 CALM      29.89S
PAYNESVILLE    CLOUDY    58  58 100 W5        29.91R FOG
AITKIN         PTCLDY    57  55  94 SW3       29.85S
PINE RIVER     CLOUDY    54  54 100 MISG      29.91R
BRAINERD       CLOUDY    56  55  97 CALM      29.87R FOG
STAPLES        CLOUDY    57  57 100 CALM      29.87S
LONG PRAIRIE   FAIR      55  55 100 CALM      29.89S FOG
LITTLE FALLS   CLOUDY    54  52  94 CALM      29.88S
LITCHFIELD     CLOUDY    63  63 100 SW5       29.90R
BUFFALO        CLOUDY    57  55  92 CALM      29.89R
MAPLE LAKE     CLOUDY    58  58  99 CALM      29.89S
HUTCHINSON     CLOUDY    61  61  99 SW6       29.92R
$$
MNZ037-044-045-052-053-181300-
   East Central Minnesota

CITY           SKY/WX    TMP DP  RH WIND       PRES   REMARKS
PRINCETON      MOCLDY    59  57  94 CALM      29.87S
MORA           CLOUDY    54  52  94 CALM      29.87S
RUSH CITY      CLOUDY    56  55  96 CALM      29.86S FOG
MOOSE LAKE     CLOUDY    55  54  94 CALM      29.85R
HINCKLEY       FAIR      57  57 100 CALM      29.85S
CLOQUET        PTCLDY    55  54  94 NW5       29.85R
MCGREGOR         N/A     52  50  93 CALM      29.87R VSB 3/4
$$
MNZ071>073-080-081-089-090-097-098-181300-
   Southwest Minnesota

CITY           SKY/WX    TMP DP  RH WIND       PRES   REMARKS
MONTEVIDEO     DRIZZLE   63  61  94 SW7       29.91F
GRANITE FALLS  RAIN      63  60  92 SW6       29.93S
CANBY          LGT RAIN  63  59  86 CALM      29.90F
MARSHALL       RAIN      61  59  93 NW3       29.93R
REDWOOD FALLS  RAIN      62  58  86 W8        29.91R FOG
OLIVIA         DRIZZLE   61  59  94 W7        29.91S
PIPESTONE      RAIN      61  57  88 N5        29.93R
WINDOM         RAIN      61  57  88 NW5       29.92R
WORTHINGTON    CLOUDY    60  58  92 CALM      29.93R
JACKSON        LGT RAIN  61  59  94 CALM      29.93S
TRACY          RAIN      60  59  98 N6        29.93R
SLAYTON        RAIN      59  54  84 N3        29.93R
$$
MNZ065>067-074>077-082>085-091>093-181300-
   South Central Minnesota

CITY           SKY/WX    TMP DP  RH WIND       PRES   REMARKS
MANKATO        LGT RAIN  60  60 100 NE9       29.87F FOG
NEW ULM        LGT RAIN  61  61 100 W5        29.89F
ST JAMES       LGT RAIN  63  61  94 SW7       29.92R
FAIRMONT       CLOUDY    62  60  93 W9        29.94R
GLENCOE        CLOUDY    61  62 100 SW6       29.90R
FARIBAULT      PTCLDY    57  57 100 CALM      29.90R
OWATONNA       CLOUDY    59  57  94 CALM      29.90R FOG
WASECA         MOCLDY    55  55 100 CALM      29.91S FOG
ALBERT LEA     MOCLDY    63  61  94 CALM      29.89F FOG
$$
MNZ078>079-086>088-094>096-181300-
   Southeast Minnesota

CITY           SKY/WX    TMP DP  RH WIND       PRES   REMARKS
ROCHESTER      PTCLDY    56  56 100 W6        29.91R
6HR MIN TEMP:  56; 6HR MAX TEMP:  61;

RED WING       CLOUDY    59  57  94 CALM      29.87S FOG
STANTON        MOCLDY    57  55  94 CALM      29.88S
DODGE CENTER   MOCLDY    57  55  94 SW6       29.91R
WINONA         CLEAR     59  57  94 NW3       29.87R
AUSTIN         CLOUDY    59  57  94 CALM      29.90S
PRESTON        PTCLDY    57  55  92 W6        29.90S
$$
ABBREVIATIONS USED IN REMARKS
   TC - TEMPERATURES IN CELSIUS
  WCI - WIND CHILL INDEX
   HX - HEAT INDEX
  VSB - VISIBILITY
$$



USA.gov is the U.S. government's official web portal to all federal, state and local government web resources and services.